Theta_e
313 314 315 316 316 315 315 315 315 316 317 318 318 318 319 319 320 322 326 330 335 334 346 346 346 344 342 345 346 358 350 347 346 349 348 346 346 339 337 338 338 338 336 339 341
311 312 313 314 315 316 316 315 315 315 317 318 318 319 319 319 321 323 326 328 331 333 341 346 345 342 351 353 347 352 346 347 345 344 346 346 346 340 338 337 338 338 336 340 340
312 312 313 313 314 315 316 316 315 315 316 317 318 319 319 319 321 326 332 328 330 334 339 346 349 344 359 352 349 346 350 348 349 347 346 346 346 342 337 336 336 337 336 336 336
313 314 314 314 314 314 315 316 316 316 315 316 318 319 319 319 322 327 332 329 332 335 340 346 353 355 358 344 344 344 346 348 347 346 346 347 346 344 341 340 338 338 336 335 337
316 316 316 316 315 315 315 316 316 316 316 316 317 318 318 319 321 323 323 332 334 334 337 344 353 354 348 343 344 345 345 347 344 345 345 346 346 346 342 342 341 336 338 335 341
317 317 316 316 316 315 315 315 317 317 316 316 316 317 318 317 320 322 324 329 332 334 335 339 340 345 343 342 343 344 346 343 343 342 344 343 346 346 345 344 341 339 338 335 338
318 316 315 316 316 315 315 316 317 318 317 316 316 316 317 319 322 330 327 327 331 330 331 330 331 339 339 341 345 345 345 342 343 346 347 342 344 345 345 343 342 339 337 335 335
318 316 314 315 315 315 315 317 318 318 317 316 317 317 317 319 320 324 324 322 325 331 332 335 338 341 340 342 342 344 343 341 341 346 346 343 340 345 343 342 340 339 337 338 338
318 315 314 314 315 317 319 319 318 316 316 317 317 317 318 319 320 321 321 321 323 326 328 338 338 338 342 337 333 339 342 342 342 344 344 343 345 346 342 342 340 339 339 340 341
318 315 314 316 320 324 325 326 327 322 318 320 318 320 319 323 323 323 322 323 323 322 327 326 334 326 333 332 329 334 341 341 341 342 345 346 345 343 342 342 341 340 340 340 341
319 317 319 320 325 324 324 324 323 324 323 323 320 317 319 321 324 324 324 324 323 322 319 321 321 323 325 332 330 333 339 340 338 342 345 346 343 345 343 341 341 341 340 339 339
320 318 320 321 324 325 325 324 325 324 323 323 323 324 321 323 325 325 323 323 322 320 319 317 320 321 322 324 327 332 335 336 337 341 342 343 345 342 342 342 340 340 340 341 340
320 319 322 323 326 325 325 325 325 324 320 323 324 323 322 324 325 324 324 323 320 320 319 318 320 321 323 324 334 333 335 335 337 339 339 339 339 340 342 343 342 340 342 341 342
321 319 322 325 326 325 325 325 325 325 317 324 326 326 325 324 322 323 324 323 320 320 317 318 318 321 320 320 326 323 327 333 338 339 339 336 338 335 342 344 344 342 340 340 340
320 320 320 323 327 326 325 325 326 325 322 323 324 324 323 322 322 321 323 323 319 319 317 319 321 320 320 320 323 320 330 334 336 336 337 337 335 331 339 343 344 341 340 340 341
321 321 320 323 325 326 325 326 327 319 326 323 322 323 322 321 322 322 322 322 320 318 317 318 319 319 319 320 325 320 319 316 316 323 332 331 328 320 326 339 341 342 340 340 341
322 323 322 322 325 323 324 327 320 321 323 324 324 320 319 319 320 320 319 318 317 318 317 318 321 318 320 323 320 316 315 316 319 319 323 319 321 320 322 325 331 337 342 341 342
325 325 324 322 322 324 326 318 322 325 323 321 323 321 322 320 318 316 319 320 319 315 315 320 322 324 324 325 325 320 314 315 319 317 317 314 318 322 326 327 338 341 343 342 341
328 325 323 326 327 326 327 322 322 321 322 323 322 323 322 322 323 323 323 324 323 321 322 323 324 323 325 323 320 320 316 313 311 310 315 313 317 322 323 325 331 340 342 343 342
330 325 328 327 328 328 323 326 327 324 322 321 322 323 324 322 324 325 324 326 326 323 321 322 326 324 323 323 323 322 316 316 311 317 319 318 319 322 323 326 325 329 339 341 342
332 328 328 329 329 328 324 325 327 328 324 325 322 325 324 324 322 323 323 326 323 325 322 321 321 323 322 323 323 320 320 312 311 310 314 315 324 321 327 328 327 333 337 337 339
327 325 326 329 322 316 321 324 326 324 325 323 324 325 325 322 322 325 325 324 324 324 325 321 318 321 322 320 317 321 322 316 321 324 310 315 317 332 338 339 338 345 349 347 341
326 327 323 328 319 317 317 317 321 321 320 323 323 322 321 322 325 323 322 322 321 323 324 321 317 318 316 318 320 320 318 317 314 314 320 321 323 325 340 341 342 339 346 350 344
325 318 323 324 321 318 319 317 321 323 319 321 321 321 321 319 317 322 320 320 320 323 319 320 314 318 319 319 319 321 319 319 317 319 320 319 321 321 341 341 338 340 342 351 351
322 318 319 317 320 318 315 316 319 320 319 320 319 319 322 320 319 318 317 316 318 319 316 314 319 318 317 317 319 319 319 319 321 320 322 322 320 331 342 340 338 338 334 334 335
321 320 322 321 321 319 316 321 321 320 319 319 320 319 318 319 318 319 316 315 317 317 315 309 314 316 316 316 316 318 317 316 317 320 318 319 319 334 341 339 337 338 335 335 334
321 322 322 320 319 320 321 322 323 320 320 322 319 319 319 318 317 318 317 317 316 315 312 312 309 309 313 312 314 316 316 316 320 323 322 326 327 339 340 338 336 336 335 334 334
Wind_Speed
12 12 11 11 11 11 11 11 11 10 9 9 10 10 9 10 13 11 8 2 4 3 10 11 11 8 1 3 1 1 3 1 2 5 3 13 4 7 9 17 8 10 10 27 32
13 12 12 11 11 11 10 11 11 11 10 9 10 10 10 11 10 13 8 7 7 4 9 9 10 5 3 3 1 2 3 2 2 5 5 12 8 12 7 14 4 10 13 32 33
14 14 13 12 11 10 10 10 10 10 10 9 9 10 10 10 8 3 5 7 7 5 8 9 1 3 2 2 1 1 1 3 6 7 14 13 7 10 16 4 15 23 21 35 33
16 15 14 13 11 10 10 10 9 9 9 9 9 10 9 6 2 3 4 9 10 11 11 13 4 2 2 3 3 3 3 3 1 7 9 10 12 8 18 6 20 18 21 35 38
16 15 14 13 11 10 9 8 8 8 8 8 9 10 8 3 5 5 2 8 13 13 10 12 10 3 2 2 1 2 3 2 4 7 8 9 12 9 21 19 5 24 24 38 35
17 16 14 12 10 9 7 7 7 7 7 7 8 8 6 3 3 5 6 7 11 14 12 13 4 5 5 2 2 4 2 4 6 5 6 7 5 16 11 23 14 22 28 41 38
18 16 13 11 8 6 6 6 6 5 5 6 7 7 8 11 4 4 6 0 2 9 10 10 11 11 2 1 2 3 3 2 3 4 2 7 3 6 12 16 23 27 33 39 38
18 16 13 9 7 5 4 4 4 4 4 4 5 5 6 5 10 11 8 8 9 11 11 8 8 13 2 4 4 3 4 5 2 2 1 2 5 4 11 23 25 30 35 36 36
18 16 12 8 6 4 3 2 3 3 3 3 4 4 4 4 10 13 15 14 7 13 13 6 6 5 2 3 4 6 3 1 6 9 3 5 6 7 19 22 24 28 32 33 36
18 15 11 8 6 6 5 2 1 1 1 2 4 2 4 5 3 7 11 13 11 4 7 8 5 3 3 4 3 5 4 2 6 3 4 4 9 5 21 24 27 31 31 33 36
16 13 10 6 7 9 7 2 3 1 8 7 4 4 4 5 2 7 7 10 10 3 3 2 3 6 9 7 3 1 2 7 9 6 3 8 6 9 19 18 19 23 29 35 36
14 12 7 4 6 8 10 7 9 8 7 8 11 14 13 9 3 4 7 6 5 5 3 6 3 7 3 3 3 3 4 7 10 6 4 2 12 4 12 20 29 30 32 38 34
13 9 5 2 3 4 7 10 13 10 1 4 2 5 3 5 4 8 10 5 3 3 2 6 5 1 3 1 2 4 5 5 8 2 4 3 8 4 3 15 21 30 40 40 41
12 7 3 3 1 1 3 9 12 10 5 5 1 1 6 4 2 6 12 7 2 7 6 3 4 3 2 4 6 4 6 9 2 2 4 3 6 7 2 8 9 27 33 38 41
10 7 4 3 2 3 6 8 10 5 5 7 1 0 4 5 2 2 12 8 7 5 5 6 3 4 4 7 8 10 2 0 3 2 4 1 1 8 4 6 10 15 32 36 42
9 6 3 4 5 5 6 11 5 6 4 6 2 0 3 2 2 3 4 4 3 4 3 6 3 3 5 3 7 1 5 6 5 3 1 4 5 6 4 6 7 6 26 34 40
7 5 3 4 3 7 10 5 5 5 3 7 3 5 3 2 4 3 3 4 2 3 4 5 3 5 1 4 3 6 6 3 3 4 6 3 5 10 5 9 8 12 23 34 39
6 5 3 3 5 7 10 5 8 2 5 3 4 5 4 5 5 6 3 3 3 4 3 3 6 5 7 1 4 1 6 6 6 4 5 4 6 5 4 15 14 7 14 29 36
4 2 2 2 5 9 3 6 5 3 4 6 3 7 8 5 3 4 5 1 1 2 5 2 3 5 1 3 3 2 1 3 7 3 3 4 7 9 6 9 15 7 8 23 32
5 4 5 5 7 10 5 3 3 4 3 2 4 3 6 8 4 4 6 2 2 2 3 4 1 2 6 4 5 5 2 2 4 4 1 5 5 5 14 20 12 8 3 6 19
3 3 9 5 8 4 3 3 4 3 2 3 2 3 2 4 4 5 5 4 6 4 5 3 3 6 1 3 2 6 4 6 5 3 5 1 6 3 6 9 10 7 6 3 7
3 3 5 2 5 3 1 2 6 4 9 6 4 3 2 4 5 3 3 2 16 2 3 3 4 2 6 4 2 2 2 4 5 2 1 2 6 1 2 7 11 11 14 9 3
3 2 7 3 3 3 6 4 2 6 5 4 5 5 5 3 4 2 2 2 15 5 2 3 2 3 9 6 5 5 3 3 4 3 2 4 5 1 9 8 16 15 16 14 9
3 2 5 7 5 2 4 4 5 6 5 5 4 4 4 6 5 1 5 2 8 3 9 4 3 5 6 7 4 4 3 2 4 3 2 6 7 6 9 7 12 18 18 21 21
7 3 3 2 5 3 1 1 4 5 4 12 4 4 2 2 1 1 1 5 4 6 4 4 1 4 5 6 3 4 6 3 4 4 5 5 6 0 5 5 6 11 19 22 22
5 5 5 3 4 2 4 3 4 6 3 3 3 2 2 1 4 4 3 4 6 1 2 2 2 4 4 4 6 5 9 7 7 3 7 5 6 3 1 2 2 4 6 10 13
11 8 4 6 4 2 1 2 3 3 2 4 1 1 2 3 9 11 9 8 8 6 4 3 5 3 4 3 4 5 8 6 3 4 4 4 4 4 2 4 4 3 4 6 8
Wind_Direction
334 328 322 315 310 301 293 286 284 286 292 299 305 311 314 314 305 301 289 260 194 223 186 158 158 167 246 293 306 252 56 60 205 150 221 142 139 135 130 134 146 156 146 168 164
333 328 322 316 311 305 296 287 284 283 285 290 300 309 315 319 305 286 269 245 220 244 205 195 167 185 268 294 274 224 84 313 317 188 171 158 146 135 123 150 189 178 131 162 167
333 328 322 316 309 303 299 290 282 280 280 282 288 301 312 327 317 285 253 215 188 172 188 185 167 201 285 269 233 327 127 195 356 75 143 154 130 149 125 189 205 185 163 171 174
335 329 323 315 309 303 297 293 289 280 272 272 276 286 303 324 225 79 72 161 159 174 179 196 179 248 294 298 123 356 322 281 64 78 127 145 166 177 175 196 219 203 188 182 182
338 331 324 316 309 302 298 294 288 282 273 264 267 280 301 274 261 271 343 159 172 188 195 201 220 220 264 317 70 136 304 40 316 113 130 150 171 181 205 212 261 202 195 189 191
343 336 329 321 313 305 298 292 286 282 273 263 263 266 278 266 266 260 209 183 188 196 196 214 252 281 306 241 174 29 312 283 282 243 155 137 153 177 222 219 205 192 196 193 195
346 342 338 332 323 312 300 296 290 281 272 265 263 265 259 252 281 172 147 103 241 221 212 253 259 275 238 134 38 344 345 355 222 295 289 126 92 230 228 205 187 190 195 196 200
348 346 344 341 340 329 317 305 289 282 284 273 262 259 248 239 232 229 239 253 240 233 242 258 249 260 248 132 41 36 16 20 297 322 296 102 253 240 183 178 178 184 187 194 200
352 351 350 355 4 8 357 331 290 270 257 239 254 227 250 205 234 243 244 242 244 240 242 222 253 228 145 104 19 12 280 155 309 207 259 186 260 191 173 172 169 180 188 196 203
356 358 6 17 43 31 356 359 14 238 231 286 248 266 228 158 313 236 237 238 222 206 193 197 184 41 21 74 253 270 310 214 242 245 205 260 266 167 178 173 182 182 189 198 206
358 3 15 53 53 40 41 72 11 1 285 247 280 270 282 324 72 162 227 217 203 207 177 77 99 226 216 197 191 322 223 272 276 207 227 233 267 200 181 188 189 181 194 199 213
357 2 20 62 39 45 54 64 22 313 308 295 251 259 270 291 301 172 153 162 153 183 111 24 229 240 203 171 175 190 260 255 283 202 191 303 254 217 186 210 193 185 195 207 212
353 358 18 39 32 68 52 26 0 342 224 303 246 242 246 189 220 195 178 169 124 154 137 156 238 104 202 243 212 226 208 238 212 28 223 10 307 281 211 212 202 197 206 206 208
346 347 327 343 54 122 0 346 340 337 54 311 313 173 195 193 271 210 189 177 63 205 156 229 284 247 173 225 161 282 199 251 245 57 239 75 283 314 326 251 210 197 198 206 210
341 338 292 269 285 296 312 326 325 327 53 301 267 85 173 178 305 37 181 186 168 175 116 252 243 232 232 222 162 236 123 101 177 141 20 214 37 267 346 295 252 206 201 204 215
347 346 311 246 278 305 312 326 309 43 29 334 307 299 121 357 323 68 139 111 107 88 354 235 268 216 223 276 182 3 94 57 52 80 63 243 142 287 261 251 289 204 204 200 212
352 353 321 273 295 307 318 327 39 81 315 323 333 3 89 338 353 50 91 47 120 60 339 329 287 305 299 337 26 73 59 348 356 9 215 36 72 246 260 287 251 265 209 201 211
347 338 335 309 308 315 332 51 64 274 286 324 360 352 71 3 14 10 58 51 37 78 83 57 345 1 341 142 233 106 153 156 185 201 259 154 232 245 226 333 351 336 222 204 204
7 359 73 351 343 343 352 54 189 187 285 330 352 30 356 11 85 66 30 86 206 218 121 92 292 319 328 318 115 314 29 179 101 12 56 297 297 312 317 359 356 0 183 197 203
45 86 28 347 338 339 69 208 229 214 291 77 95 29 22 341 53 50 8 350 35 36 165 202 64 322 292 21 16 84 167 21 0 129 171 307 295 254 334 322 330 321 248 210 214
43 88 9 343 338 7 99 248 282 312 314 77 117 66 18 9 48 20 341 336 1 347 68 120 101 288 8 53 246 357 14 52 116 92 151 169 266 223 289 305 322 354 63 194 221
45 54 359 18 32 44 72 256 327 340 17 40 84 88 83 39 33 74 65 263 335 283 47 32 127 247 237 292 298 346 59 115 108 247 99 143 270 255 357 340 355 6 45 58 94
38 69 19 61 77 336 318 308 356 9 25 31 31 45 31 62 76 79 356 332 16 53 120 165 17 15 352 354 357 43 337 98 96 82 198 131 262 302 28 27 23 15 45 55 70
5 36 44 75 72 107 3 354 355 26 49 60 42 68 62 32 10 139 356 323 351 65 43 104 111 160 180 212 182 309 311 76 106 90 207 230 287 335 338 4 7 39 59 65 67
27 50 33 341 5 32 22 329 349 8 31 31 38 60 106 115 29 284 272 321 346 360 44 92 223 189 247 230 218 236 240 274 233 201 168 250 234 354 292 320 333 78 70 61 57
43 13 358 7 328 10 357 8 9 325 20 357 88 327 50 191 204 228 197 208 237 326 100 32 241 177 271 270 226 264 254 228 238 211 263 276 278 173 247 282 279 112 61 48 33
29 8 356 354 356 63 283 313 335 323 8 49 292 196 292 295 305 271 252 254 235 194 176 161 142 110 264 329 326 298 233 195 189 185 200 190 238 184 206 246 243 272 308 336 33